AAL3104 KMIA-KDFW

Flight info

Callsign AAL3104
Flight time N/A
Altitude 32000
Route GLADZ4 BAGGS REMIS Y280 REDFN Q105 HRV PNUTS WHINY4
Aircraft B738/M-SDE2E3FGHIRWXY/LB1

Departure

Time N/A
Airport Miami International Airport (KMIA)

Arrival

Time 2026-05-06 01:04
Airport Dallas Fort Worth International Airport (KDFW)
Time Latitude Longitude Altitude Speed Heading
2026-05-06 00:54 32.49294 -96.68167 9784 ft 262 kts 275°
2026-05-06 00:54 32.49445 -96.70303 9564 ft 259 kts 271°
2026-05-06 00:54 32.49554 -96.72424 9312 ft 258 kts 271°
2026-05-06 00:54 32.49666 -96.74544 9060 ft 258 kts 271°
2026-05-06 00:55 32.49784 -96.76660 8812 ft 257 kts 271°
2026-05-06 00:55 32.49904 -96.78774 8566 ft 257 kts 272°
2026-05-06 00:55 32.50070 -96.80879 8315 ft 258 kts 281°
2026-05-06 00:55 32.50765 -96.82849 8082 ft 258 kts 294°
2026-05-06 00:56 32.51573 -96.84707 7836 ft 256 kts 294°
2026-05-06 00:56 32.52386 -96.86573 7590 ft 254 kts 294°
2026-05-06 00:56 32.53189 -96.88426 7348 ft 251 kts 294°
2026-05-06 00:56 32.53981 -96.90265 7113 ft 250 kts 294°
2026-05-06 00:57 32.54766 -96.92094 6876 ft 248 kts 294°
2026-05-06 00:57 32.55547 -96.93918 6646 ft 248 kts 294°
2026-05-06 00:57 32.56327 -96.95743 6406 ft 248 kts 295°
2026-05-06 00:57 32.57109 -96.97577 6173 ft 249 kts 295°
2026-05-06 00:58 32.57893 -96.99414 6055 ft 250 kts 295°
2026-05-06 00:58 32.58751 -97.01222 5996 ft 254 kts 308°
2026-05-06 00:58 32.60168 -97.02452 6008 ft 256 kts 336°
2026-05-06 00:58 32.61931 -97.02846 6017 ft 262 kts 355°
2026-05-06 00:59 32.63761 -97.02864 6010 ft 264 kts 358°
2026-05-06 00:59 32.65615 -97.02812 5780 ft 265 kts 359°
2026-05-06 00:59 32.67430 -97.02761 5503 ft 258 kts 358°
2026-05-06 00:59 32.69216 -97.02729 5109 ft 256 kts 358°
2026-05-06 01:00 32.70993 -97.02711 4726 ft 255 kts 359°
2026-05-06 01:00 32.72739 -97.02698 4313 ft 254 kts 359°
2026-05-06 01:00 32.74497 -97.02687 3910 ft 250 kts 359°
2026-05-06 01:00 32.76244 -97.02677 3415 ft 247 kts 359°
2026-05-06 01:01 32.77935 -97.02667 2715 ft 243 kts 360°
2026-05-06 01:01 32.79563 -97.02659 2294 ft 223 kts
2026-05-06 01:01 32.81038 -97.02651 1905 ft 201 kts 358°
2026-05-06 01:01 32.82313 -97.02663 1682 ft 170 kts 359°
2026-05-06 01:02 32.83423 -97.02673 1423 ft 150 kts
2026-05-06 01:02 32.84372 -97.02656 1344 ft 129 kts 359°
2026-05-06 01:02 32.85277 -97.02643 1174 ft 130 kts
2026-05-06 01:02 32.86187 -97.02631 955 ft 132 kts 360°
2026-05-06 01:03 32.87116 -97.02631 807 ft 135 kts
2026-05-06 01:03 32.88048 -97.02622 638 ft 133 kts
2026-05-06 01:03 32.88883 -97.02617 620 ft 106 kts
2026-05-06 01:03 32.89521 -97.02607 620 ft 82 kts
2026-05-06 01:04 32.89843 -97.02631 625 ft 29 kts 348°
2026-05-06 01:04 32.89988 -97.02719 626 ft 23 kts 329°
2026-05-06 01:04 32.90104 -97.02813 615 ft 18 kts 300°
2026-05-06 01:04 32.90110 -97.02952 615 ft 17 kts 269°
2026-05-06 01:05 32.90108 -97.03086 615 ft 16 kts 271°
2026-05-06 01:05 32.90110 -97.03216 615 ft 15 kts 271°
2026-05-06 01:05 32.90080 -97.03314 618 ft 12 kts 190°
2026-05-06 01:05 32.89997 -97.03313 620 ft 12 kts 178°
2026-05-06 01:06 32.89916 -97.03316 619 ft 12 kts 202°
2026-05-06 01:06 32.89889 -97.03392 622 ft 9 kts 270°
2026-05-06 01:06 32.89874 -97.03434 625 ft 5 kts 207°
2026-05-06 01:06 32.89842 -97.03453 615 ft 7 kts 213°
2026-05-06 01:07 32.89819 -97.03484 619 ft 3 kts 237°
2026-05-06 01:07 32.89814 -97.03493 615 ft 1 kts 237°
2026-05-06 01:07 32.89808 -97.03503 625 ft 0 kts 237°
2026-05-06 01:07 32.89807 -97.03506 623 ft 0 kts 237°